Location: Glums�
(55.3568°N, 11.6856°E)
Time: 02:39:22
(UTC+00:00)

USA 81 - Pass Details

Date: 07 June 2020
Orbit: 786 x 787 km, 85.0° (Epoch: 01 July)

Event Time Altitude Azimuth Distance (km) Brightness Sun altitude
Exits shadow 00:30:17 13° 202° (SSW) 2,131 5.6 -10.1°
Maximum altitude 00:34:56 61° 282° (WNW) 894 4.3 -9.9°
Drops below altitude 10° 00:40:11 10° 3° (N) 2,363 7.9 -9.6°
Sets 00:42:36 0° 7° (N) 3,296 9.1 -9.5°
